CZ-6A DEB

Satellite information

Favourite Embed

Satellite Type and Status

DEBRISIN ORBIT

Key statistics

Satellite CZ-6A DEB at a glance.

Uptime

1129

Days in orbit

Revolutions

≈ 15.1

Per day

Orbit

SSO

Sun Synchronous Orbit

Inclination

98.6

Latest

Satellite identification and parameters

Extended collection of information and parameters for CZ-6A DEB.

Object identification

Identified? True

Debris? True

Object name: CZ-6A DEB

International designator: 2022-151HS

Object number (NORAD): 54490

Object ID (CCSDS): 54490

Country: PEOPLES REPUBLIC OF CHINA (PRC)

Current information (Y/N): Y

RCS size: SMALL

Orbital parameters

Period: 95.603 minutes

Inclination: 98.642 deg

SMA: 6925.86 km

Apoapsis: 571.238 km

Periapsis: 524.212 km

RAAN: 58.7255 deg

Eccentricy: 0.00339498

Argument of periapsis: 84.3695 deg

Mean anomaly: 276.1399 deg

Mean motion: 15.06233174 rev/day

Mean motion (dot): 0.00092014 rev/day2

B* drag term: 0.0061241223 1/REarth

Two-line elements (TLE)

Creation date: Dec. 14, 2025, 3:07 a.m.

Reference frame: TEME

Reference center: EARTH

Epoch: Dec. 13, 2025, 4:27 p.m. UTC

TLE line 0: 0 CZ-6A DEB

TLE line 1: 1 54490U 22151HS 25347.68553681 .00092014 00000-0 61241-2 0 9998

TLE line 2: 2 54490 98.6420 58.7255 0033950 84.3695 276.1399 15.06233174163830

Live tracking on map

Real-time ground track for satellite CZ-6A DEB.

In-orbit conjunctions

A list of the most updated potential collisions computed for object CZ-6A DEB.

Target Orbit TCA Probability of collision Miss distance Type
IRIDIUM 73 LEO 2024-11-01 00:36:30 0.0001373345 384.0 (m) PAYLOAD
SL-8 R/B LEO 2024-08-06 05:56:11 0.0001169232 270.0 (m) ROCKET BODY

Associated space launch

Chinese satellite reported for atmospheric/ocean/environmental/spatial parameter research purposes, details TBD.

CZ-6A DEB was lifted into orbit during the mission ‘Long March 6A | Yunhai 3’, on board a Long March 6A space rocket.

The launch took place on Nov. 11, 2022, 10:52 p.m. from Launch Complex 9A.

For more information about the launch, click the button.

Launch to space Long March 6A | Yunhai 3
Long March 6A | Yunhai 3

Agency: N/A

Status: Launch Successful

Launch date: Nov. 11, 2022, 10:52 p.m. UTC

Rocket: Long March 6A

Launch pad: Launch Complex 9A

Location: Taiyuan Satellite Launch Center, People's Republic of China

...

Latest news about this satellite

There are no fresh news available about this satellite. Check back as we update our databases every day.


Newsletter sign-up

Weekly statistics, charts and insights to help you stay on top of the space industry.